Location: Arcizac
(43.0933°N, 0.0112°E)
Time: 20:43:41
(UTC+00:00)

Cosmos 1603 - Pass Details

Date: 14 December 2019
Orbit: 830 x 860 km, 71.0° (Epoch: 26 January)

Event Time Altitude Azimuth Distance (km) Brightness Sun altitude
Rises 18:13:44 0° 192° (SSW) 3,399 7.2 -19.0°
Reaches altitude 10° 18:16:11 10° 188° (S) 2,472 6.4 -19.4°
Maximum altitude 18:21:46 61° 110° (ESE) 970 3.7 -20.4°
Enters shadow 18:24:02 36° 46° (NE) 1,344 4.3 -20.8°
